Skip Page Navigation
NASA JPL Caltech
NASA Logo - Jet Propulsion Laboratory + View the NASA Portal
+ Center for Near-Earth Object Studies
JPL Home Earth Solar System Stars & Galaxies Technology
JPL Solar System Dynamics
BODIES ORBITS EPHEMERIDES TOOLS PHYSICAL DATA DISCOVERY FAQ SITE MAP
JPL Small-Body Database Browser
Search: [ help ]  
305070 (2007 UU100)
Classification: Main-belt Asteroid          SPK-ID: 2305070
Ephemeris | Orbit Diagram | Orbital Elements | Mission Design | Physical Parameters | Discovery Circumstances ]

[ show orbit diagram ]
Orbital Elements at Epoch 2459000.5 (2020-May-31.0) TDB
Reference: JPL 11 (heliocentric ecliptic J2000)
 Element Value Uncertainty (1-sigma)   Units 
e .234321327297927 6.9791e-08  
a 2.580409060264407 3.439e-08 au
q 1.975764184291655 1.9974e-07 au
i 3.527081209017933 8.8704e-06 deg
node 242.5001463232635 0.00015635 deg
peri 202.1871001143981 0.00016299 deg
M 353.7543258790512 4.9461e-05 deg
tp 2459026.766855423254
(2020-Jun-26.26685542)
0.00020849 TDB
period 1514.018786323542
4.15
3.0267e-05
8.287e-08
d
yr
n .2377777628996136 4.7534e-09 deg/d
Q 3.18505393623716 4.2448e-08 au
  Orbit Determination Parameters
   # obs. used (total)      239  
   data-arc span      14937 days (40.90 yr)  
   first obs. used      1978-11-29  
   last obs. used      2019-10-22  
   planetary ephem.      DE431  
   SB-pert. ephem.      SB431-N16  
   condition code      0  
   norm. resid. RMS      .56333  
   source      ORB  
   producer      Otto Matic  
   solution date      2019-Nov-08 07:37:50  

Additional Information
 Earth MOID = .992411 au 
 Jupiter MOID = 2.0598 au 
 T_jup = 3.383 
[ show covariance matrix ]

Ephemeris | Orbit Diagram | Orbital Elements | Mission Design | Physical Parameters | Discovery Circumstances ]

Physical Parameter Table
Parameter Symbol Value Units Sigma Reference Notes
absolute magnitude H 17.0   n/a MPO494620  

305070 (2007 UU100)          Discovered 2007-Oct-30 by Spacewatch at Kitt Peak
Reference: 20111110/Numbers.arcLast Updated: 2011-11-14

Alternate Designations
 2007 UU100 = 1978 WK8 = 2003 YR99 
Ephemeris | Orbit Diagram | Orbital Elements | Mission Design | Physical Parameters | Discovery Circumstances ]
ABOUT SSD CREDITS/AWARDS PRIVACY/COPYRIGHT GLOSSARY LINKS
FirstGov 2020-Aug-06 08:14 UT
(server date/time)  
NASA Home Page
Site Manager:   Ryan S. Park
Webmaster  Alan B. Chamberlin